Date String (YYYY-MM-DD hh:mm:ss) UTC,Instrument flags,Ambient pressure (hPa),Sample flow (lpm),Bypass flow (lpm),Sample temperature (°C),Ambient temperature (°C),ASC tube jacket temperature (°C),LED temperature (°C),Box temperature (°C),Sample RH (%),Span deviation,Mass concentration (μg/m³),Mass concentration (μg/m³),Mass concentration (μg/m³)
DateTimeUTC,F1_M11,P_M11,Q1_M11,Q2_M11,T1_M11,T2_M11,T3_M11,T4_M11,T5_M11,U1_M11,ZSPAN_M11,X0_M11,X2_M11,X1_M11
2022-06-05 03:00:00,,0820.7,5.00,0.00,29.8,28.8,00.0,38.6,31.7,19.3,0000.0,0008.82,0003.45,0002.19
2022-06-05 03:01:00,,0820.7,5.01,0.00,29.8,28.9,00.0,38.6,31.7,19.1,0000.0,0008.90,0003.49,0002.20
2022-06-05 03:02:00,,0820.7,4.99,0.00,29.8,28.5,00.0,38.6,31.6,19.0,0000.0,0009.01,0003.48,0002.22
2022-06-05 03:03:00,,0820.6,5.01,0.00,29.7,27.6,00.0,38.5,31.4,19.0,0000.0,0009.68,0003.48,0002.23
2022-06-05 03:04:00,,0820.6,4.99,0.00,29.6,27.2,00.0,38.4,31.3,19.1,0000.0,0009.63,0003.50,0002.23
2022-06-05 03:05:00,,0820.6,5.00,0.00,29.5,27.2,00.0,38.4,31.2,19.1,0000.0,0009.21,0003.49,0002.23
2022-06-05 03:06:00,,0820.6,5.00,0.00,29.5,27.3,00.0,38.4,31.2,19.2,0000.0,0008.78,0003.47,0002.24
2022-06-05 03:07:00,,0820.7,5.01,0.00,29.4,27.4,00.0,38.4,31.2,19.1,0000.0,0008.97,0003.53,0002.24
2022-06-05 03:08:00,,0820.7,5.01,0.00,29.4,27.5,00.0,38.4,31.2,19.2,0000.0,0009.34,0003.52,0002.24
2022-06-05 03:09:00,,0820.7,4.99,0.00,29.4,27.7,00.0,38.4,31.2,19.3,0000.0,0009.20,0003.48,0002.24
2022-06-05 03:10:00,,0820.8,5.00,0.00,29.4,27.8,00.0,38.3,31.2,19.3,0000.0,0009.04,0003.47,0002.24
2022-06-05 03:11:00,,0820.8,5.00,0.00,29.4,27.9,00.0,38.3,31.2,19.1,0000.0,0009.13,0003.48,0002.23
2022-06-05 03:12:00,,0820.9,5.00,0.00,29.4,28.0,00.0,38.3,31.3,19.2,0000.0,0009.79,0003.44,0002.23
2022-06-05 03:13:00,,0820.8,5.00,0.00,29.4,28.1,00.0,38.3,31.3,19.3,0000.0,0009.54,0003.41,0002.23
2022-06-05 03:14:00,,0820.9,5.01,0.00,29.4,28.2,00.0,38.3,31.3,19.2,0000.0,0008.81,0003.40,0002.23
2022-06-05 03:15:00,,0820.9,5.00,0.00,29.4,28.2,00.0,38.3,31.3,19.4,0000.0,0008.85,0003.40,0002.25
2022-06-05 03:16:00,,0821.0,5.00,0.00,29.5,28.3,00.0,38.3,31.4,19.3,0000.0,0008.83,0003.40,0002.26
2022-06-05 03:17:00,,0821.0,5.00,0.00,29.5,28.4,00.0,38.3,31.4,19.1,0000.0,0008.79,0003.40,0002.24
2022-06-05 03:18:00,,0820.9,4.99,0.00,29.5,28.4,00.0,38.4,31.4,18.9,0000.0,0009.05,0003.37,0002.25
2022-06-05 03:19:00,,0821.0,5.00,0.00,29.5,28.4,00.0,38.4,31.4,19.0,0000.0,0009.23,0003.35,0002.26
2022-06-05 03:20:00,,0821.0,5.00,0.00,29.5,28.5,00.0,38.4,31.4,19.2,0000.0,0009.58,0003.41,0002.30
2022-06-05 03:21:00,,0821.0,5.00,0.00,29.5,28.5,00.0,38.4,31.5,19.2,0000.0,0009.67,0003.45,0002.32
2022-06-05 03:22:00,,0821.0,4.99,0.00,29.6,28.6,00.0,38.4,31.5,19.2,0000.0,0009.48,0003.45,0002.35
2022-06-05 03:23:00,,0821.0,4.99,0.00,29.6,28.6,00.0,38.4,31.5,19.2,0000.0,0008.75,0003.46,0002.37
2022-06-05 03:24:00,,0821.0,5.00,0.00,29.6,28.6,00.0,38.4,31.5,19.2,0000.0,0008.65,0003.50,0002.40
2022-06-05 03:25:00,,0821.0,5.00,0.00,29.6,28.6,00.0,38.4,31.5,19.6,0000.0,0008.70,0003.49,0002.42
2022-06-05 03:26:00,,0821.1,5.01,0.00,29.6,28.7,00.0,38.5,31.6,19.3,0000.0,0008.62,0003.46,0002.44
2022-06-05 03:27:00,,0821.1,5.01,0.00,29.7,28.7,00.0,38.5,31.6,19.4,0000.0,0008.96,0003.49,0002.46
2022-06-05 03:28:00,,0821.1,5.00,0.00,29.7,28.7,00.0,38.5,31.6,19.4,0000.0,0009.47,0003.52,0002.50
2022-06-05 03:29:00,,0821.1,5.00,0.00,29.7,28.8,00.0,38.5,31.6,19.4,0000.0,0009.86,0003.57,0002.53
2022-06-05 03:30:00,,0821.2,5.01,0.00,29.7,28.8,00.0,38.5,31.7,19.2,0000.0,0010.30,0003.59,0002.54
2022-06-05 03:31:00,,0821.2,4.99,0.00,29.7,28.8,00.0,38.5,31.7,19.0,0000.0,0009.72,0003.57,0002.55
2022-06-05 03:32:00,,0821.2,5.00,0.00,29.8,28.8,00.0,38.6,31.7,18.9,0000.0,0010.02,0003.57,0002.54
2022-06-05 03:33:00,,0821.2,5.00,0.00,29.8,28.8,00.0,38.6,31.7,18.8,0000.0,0010.58,0003.61,0002.55
2022-06-05 03:34:00,,0821.3,5.01,0.00,29.8,28.9,00.0,38.6,31.7,18.5,0000.0,0010.73,0003.62,0002.56
2022-06-05 03:35:00,,0821.3,5.00,0.00,29.8,28.9,00.0,38.6,31.7,18.6,0000.0,0011.25,0003.60,0002.55
2022-06-05 03:36:00,,0821.3,5.00,0.00,29.8,28.9,00.0,38.6,31.8,18.5,0000.0,0011.46,0003.58,0002.57
2022-06-05 03:37:00,,0821.3,5.00,0.00,29.8,28.9,00.0,38.6,31.8,18.2,0000.0,0011.68,0003.59,0002.58
2022-06-05 03:38:00,,0821.3,5.01,0.00,29.9,28.8,00.0,38.6,31.8,18.0,0000.0,0012.28,0003.62,0002.58
2022-06-05 03:39:00,,0821.3,5.01,0.00,29.8,27.9,00.0,38.6,31.5,18.1,0000.0,0011.90,0003.63,0002.57
2022-06-05 03:40:00,,0821.3,5.00,0.00,29.7,27.3,00.0,38.5,31.3,18.2,0000.0,0011.49,0003.63,0002.56
2022-06-05 03:41:00,,0821.3,5.01,0.00,29.6,27.2,00.0,38.5,31.3,18.5,0000.0,0011.19,0003.61,0002.56
2022-06-05 03:42:00,,0821.4,5.00,0.00,29.5,27.2,00.0,38.5,31.2,18.7,0000.0,0011.05,0003.60,0002.55
2022-06-05 03:43:00,,0821.4,4.99,0.00,29.5,27.4,00.0,38.4,31.2,18.6,0000.0,0011.07,0003.60,0002.54
2022-06-05 03:44:00,,0821.4,5.00,0.00,29.5,27.5,00.0,38.4,31.2,18.5,0000.0,0010.87,0003.60,0002.54
2022-06-05 03:45:00,,0821.4,5.00,0.00,29.5,27.7,00.0,38.4,31.3,18.5,0000.0,0010.76,0003.59,0002.53
2022-06-05 03:46:00,,0821.4,4.99,0.00,29.5,27.8,00.0,38.4,31.3,18.4,0000.0,0010.77,0003.64,0002.54
2022-06-05 03:47:00,,0821.4,5.01,0.00,29.5,27.9,00.0,38.4,31.3,18.3,0000.0,0010.61,0003.66,0002.54
2022-06-05 03:48:00,,0821.3,5.00,0.00,29.5,28.0,00.0,38.4,31.3,18.3,0000.0,0010.79,0003.70,0002.54
2022-06-05 03:49:00,,0821.3,5.00,0.00,29.5,28.1,00.0,38.4,31.3,18.3,0000.0,0010.33,0003.70,0002.52
2022-06-05 03:50:00,,0821.3,5.00,0.00,29.5,28.2,00.0,38.4,31.4,18.7,0000.0,0010.00,0003.66,0002.50
2022-06-05 03:51:00,,0821.4,4.99,0.00,29.5,28.3,00.0,38.4,31.4,18.8,0000.0,0010.10,0003.66,0002.49
2022-06-05 03:52:00,,0821.3,5.00,0.00,29.5,28.4,00.0,38.4,31.4,19.0,0000.0,0009.69,0003.63,0002.45
2022-06-05 03:53:00,,0821.4,5.00,0.00,29.5,28.4,00.0,38.4,31.4,19.3,0000.0,0009.87,0003.63,0002.42
2022-06-05 03:54:00,,0821.4,5.00,0.00,29.5,28.5,00.0,38.4,31.4,18.9,0000.0,0009.94,0003.67,0002.42
2022-06-05 03:55:00,,0821.4,4.99,0.00,29.6,28.5,00.0,38.4,31.5,19.0,0000.0,0009.85,0003.67,0002.39
2022-06-05 03:56:00,,0821.4,5.00,0.00,29.6,28.6,00.0,38.4,31.5,19.0,0000.0,0009.73,0003.68,0002.37
2022-06-05 03:57:00,,0821.3,5.00,0.00,29.6,28.6,00.0,38.4,31.5,19.2,0000.0,0009.29,0003.65,0002.35
2022-06-05 03:58:00,,0821.4,5.01,0.00,29.6,28.6,00.0,38.4,31.5,19.1,0000.0,0009.10,0003.64,0002.33
2022-06-05 03:59:00,,0821.3,5.01,0.00,29.6,28.7,00.0,38.5,31.5,18.8,0000.0,0009.81,0003.64,0002.33
